2018-096AA (43743 NORAD) Tracking and Keplerian Element Data

This shows tracking and keplerian element data for the satellite.

Feedback or suggestion? Click here.




ElementValue
Catalog43743
Name2018-096AA
Epoch Orbit172
Epoch Day344.52447926
Epoch Year2018
RAAN49.5311
Inclination97.4842
Eccentricity0.0016322
Argument of Perigee286.0615
Mean Anonmoly182.1176
Mean Motion15.26146723
Decay Rate1.191E-05
L11 43743U 18096AA 18344.52447926 .00001191 00000-0 48894-4 0 9993
L22 43743 97.4842 49.5311 0016322 286.0615 182.1176 15.26146723 1725

Live tracking and technical data element details for 2018-096AA (NORAD 43743). 2018-096AA can be tracked NOW for your location showing map with azimuth and elevation plus other details from your city location.

Track the satellite on the map from your city or location and see movement details for azimuth, elevation, latitude, longitude, range, height, and movement on the map or in text.







IsCatalogInMostPopularTable: catalog: 43743, numindb: 6
Update: records affected: 1



GetName: 43743 2018-096AA

Hit Count: updated at: Tue, 11 Dec 2018 03:27:43 GMT